Location: Helsinki
(60.1699°N, 24.9384°E)
Time: 23:42:16
(UTC+02:00)

Transit 4A - Pass Details

Date: 05 November 2020
Orbit: 862 x 982 km, 66.8° (Epoch: 25 November)

Event Time Altitude Azimuth Distance (km) Brightness Sun altitude
Rises 16:49:15 0° 260° (W) 3,660 13.0 -4.9°
Reaches altitude 10° 16:51:52 10° 265° (W) 2,725 11.8 -5.2°
Maximum altitude 16:58:08 54° 342° (NNW) 1,185 8.5 -5.9°
Drops below altitude 10° 17:04:27 10° 60° (ENE) 2,745 9.7 -6.6°
Enters shadow 17:05:02 - 61° (ENE) 2,948 9.8 -6.7°
